Wadena, MN

7:14 PM CDT on April 24, 2017 (GMT -0500)
Wadena Municipal

Weather History for KADC - March, 2013

Change the Weather History Date:

Thursday, March 21, 2013

  Actual Average Record
Temperature  
Mean Temperature 2 °F -  
Max Temperature 21 °F 36 °F 72 °F (1938)
Min Temperature -16 °F 16 °F -16 °F (2013)
Degree Days  
Heating Degree Days 62    
Moisture  
Dew Point -4 °F    
Average Humidity 71    
Maximum Humidity 85    
Minimum Humidity 53    
Precipitation  
Precipitation 0.00 in - - ()
Sea Level Pressure  
Sea Level Pressure 30.06 in    
Wind  
Wind Speed 1 mph (WNW)    
Max Wind Speed 8 mph    
Max Gust Speed -    
Visibility 10 miles    
Events      
Averages and records for this station are not official NWS values.
T = Trace of Precipitation, MM = Missing Value Source: NWS Daily Summary

Daily Weather History Graph

Daily Weather History Graph

Search for Another Location

Airport or City:

Trip Planner

Search our weather history database for the weather conditions in past years. The results will help you decide how hot, cold, wet, or windy it might be!

Date:

Astronomy

Mar. 21, 2013 Rise Set
Actual Time 7:21 AM CDT 7:35 PM CDT
Civil Twilight 6:51 AM CDT 8:05 PM CDT
Nautical Twilight 6:15 AM CDT 8:40 PM CDT
Astronomical Twilight 5:39 AM CDT 9:17 PM CDT
Moon 1:49 PM CDT (3/21) 4:01 AM CDT (3/21)
Length of Visible Light 13h 14m
Length of Day
12h 13m
Waxing Gibbous, 69% of the Moon is Illuminated
Mar 21
Waxing Gibbous
Mar 27
Full
Apr 2
Last Quarter
Apr 10
New
Apr 18
First Quarter

Hourly Weather History & Observations

Time (CDT) Temp. Windchill Dew Point Humidity Pressure Visibility Wind Dir Wind Speed Gust Speed Precip Events Conditions
12:15 AM -2.2 °F - -7.6 °F 78% 30.12 in 10.0 mi Calm Calm - N/A   Clear
12:35 AM -2.2 °F -12.5 °F -7.6 °F 78% 30.11 in 10.0 mi NNW 4.6 mph - N/A   Clear
1:15 AM -4.0 °F - -7.6 °F 85% 30.10 in 10.0 mi Calm Calm - N/A   Clear
1:35 AM -5.8 °F - -9.4 °F 84% 30.10 in 10.0 mi Calm Calm - N/A   Clear
1:53 AM -5.8 °F - -9.4 °F 84% 30.09 in 10.0 mi Calm Calm - N/A   Clear
2:15 AM -4.0 °F - -7.6 °F 85% 30.09 in 10.0 mi Calm Calm - N/A   Clear
2:35 AM -7.6 °F - -11.2 °F 84% 30.08 in 10.0 mi Calm Calm - N/A   Clear
2:53 AM -9.4 °F - -14.8 °F 77% 30.09 in 10.0 mi Calm Calm - N/A   Clear
3:15 AM -11.2 °F - -16.6 °F 77% 30.08 in 10.0 mi Calm Calm - N/A   Clear
3:34 AM -11.2 °F - -14.8 °F 84% 30.08 in 10.0 mi Calm Calm - N/A   Clear
3:52 AM -11.2 °F - -14.8 °F 84% 30.08 in 10.0 mi Calm Calm - N/A   Clear
4:15 AM -11.2 °F - -14.8 °F 84% 30.07 in 10.0 mi Calm Calm - N/A   Clear
4:34 AM -13.0 °F - -16.6 °F 84% 30.07 in 10.0 mi Calm Calm - N/A   Clear
4:53 AM -13.0 °F - -16.6 °F 84% 30.07 in 10.0 mi Calm Calm - N/A   Clear
5:14 AM -13.0 °F - -16.6 °F 84% 30.07 in 10.0 mi Calm Calm - N/A   Clear
5:35 AM -16.6 °F - -20.2 °F 84% 30.07 in 10.0 mi Calm Calm - N/A   Clear
5:53 AM -14.8 °F - -18.4 °F 84% 30.07 in 10.0 mi Calm Calm - N/A   Clear
6:15 AM -14.8 °F - -18.4 °F 84% 30.07 in 10.0 mi Calm Calm - N/A   Clear
6:35 AM -11.2 °F - -16.6 °F 77% 30.07 in 10.0 mi Calm Calm - N/A   Clear
6:52 AM -14.8 °F - -18.4 °F 84% 30.07 in 10.0 mi Calm Calm - N/A   Clear
7:15 AM -16.6 °F - -20.2 °F 84% 30.08 in 10.0 mi Calm Calm - N/A   Clear
7:35 AM -14.8 °F - -18.4 °F 84% 30.08 in 10.0 mi Calm Calm - N/A   Clear
7:52 AM -16.6 °F - -20.2 °F 84% 30.08 in 10.0 mi Calm Calm - N/A   Clear
8:15 AM -14.8 °F - -18.4 °F 84% 30.08 in 10.0 mi Calm Calm - N/A   Clear
8:35 AM -11.2 °F - -16.6 °F 77% 30.07 in 10.0 mi Calm Calm - N/A   Clear
8:53 AM -11.2 °F - -14.8 °F 84% 30.07 in 10.0 mi Calm Calm - N/A   Clear
9:15 AM -9.4 °F - -13.0 °F 84% 30.07 in 10.0 mi Calm Calm - N/A   Clear
9:34 AM -7.6 °F - -11.2 °F 84% 30.07 in 10.0 mi Calm Calm - N/A   Clear
9:52 AM -2.2 °F - -7.6 °F 78% 30.07 in 10.0 mi Calm Calm - N/A   Clear
10:15 AM -0.4 °F - -5.8 °F 78% 30.07 in 10.0 mi Calm Calm - N/A   Clear
10:35 AM 3.2 °F - -0.4 °F 85% 30.07 in 10.0 mi Calm Calm - N/A   Clear
10:53 AM 6.8 °F - -0.4 °F 72% 30.07 in 10.0 mi Calm Calm - N/A   Clear
11:15 AM 8.6 °F - 1.4 °F 73% 30.07 in 10.0 mi Calm Calm - N/A   Clear
11:35 AM 12.2 °F - 1.4 °F 62% 30.07 in 10.0 mi Calm Calm - N/A   Unknown
12:14 PM 15.8 °F - 3.2 °F 58% 30.06 in 10.0 mi Calm Calm - N/A   Clear
12:34 PM 15.8 °F - 3.2 °F 58% 30.06 in 10.0 mi Calm Calm - N/A   Clear
12:53 PM 17.6 °F - 3.2 °F 53% 30.06 in 10.0 mi Calm Calm - N/A   Clear
1:15 PM 17.6 °F - 3.2 °F 53% 30.05 in 10.0 mi Calm Calm - N/A   Clear
1:35 PM 17.6 °F - 3.2 °F 53% 30.05 in 10.0 mi Calm Calm - N/A   Clear
1:52 PM 17.6 °F 12.3 °F 5.0 °F 58% 30.04 in 10.0 mi North 3.5 mph - N/A   Clear
2:15 PM 19.4 °F - 5.0 °F 54% 30.04 in 10.0 mi Calm Calm - N/A   Clear
2:35 PM 19.4 °F - 5.0 °F 54% 30.03 in 10.0 mi Calm Calm - N/A   Clear
2:52 PM 19.4 °F 14.3 °F 5.0 °F 54% 30.03 in 10.0 mi NW 3.5 mph - N/A   Clear
3:15 PM 19.4 °F 14.3 °F 6.8 °F 58% 30.02 in 10.0 mi NNW 3.5 mph - N/A   Clear
3:35 PM 19.4 °F 14.3 °F 6.8 °F 58% 30.02 in 10.0 mi WNW 3.5 mph - N/A   Clear
3:52 PM 21.2 °F 14.9 °F 6.8 °F 54% 30.02 in 10.0 mi WNW 4.6 mph - N/A   Clear
4:14 PM 21.2 °F 16.4 °F 6.8 °F 54% 30.02 in 10.0 mi WNW 3.5 mph - N/A   Clear
4:35 PM 21.2 °F - 6.8 °F 54% 30.02 in 10.0 mi Calm Calm - N/A   Clear
4:53 PM 21.2 °F - 6.8 °F 54% 30.01 in 10.0 mi Calm Calm - N/A   Clear
5:15 PM 21.2 °F - 6.8 °F 54% 30.01 in 10.0 mi Calm Calm - N/A   Clear
5:35 PM 21.2 °F 16.4 °F 6.8 °F 54% 30.01 in 10.0 mi West 3.5 mph - N/A   Clear
5:53 PM 21.2 °F 14.9 °F 6.8 °F 54% 30.01 in 10.0 mi West 4.6 mph - N/A   Clear
6:15 PM 19.4 °F 14.3 °F 6.8 °F 58% 30.02 in 10.0 mi West 3.5 mph - N/A   Clear
6:35 PM 19.4 °F 9.5 °F 6.8 °F 58% 30.02 in 10.0 mi WSW 8.1 mph - N/A   Clear
6:52 PM 19.4 °F 12.8 °F 6.8 °F 58% 30.02 in 10.0 mi West 4.6 mph - N/A   Clear
7:14 PM 17.6 °F 12.3 °F 6.8 °F 63% 30.02 in 10.0 mi West 3.5 mph - N/A   Clear
7:35 PM 17.6 °F 10.7 °F 5.0 °F 58% 30.02 in 10.0 mi WNW 4.6 mph - N/A   Clear
7:53 PM 15.8 °F 8.6 °F 5.0 °F 62% 30.02 in 10.0 mi WNW 4.6 mph - N/A   Clear
8:15 PM 15.8 °F 7.2 °F 5.0 °F 62% 30.03 in 10.0 mi WNW 5.8 mph - N/A   Clear
8:34 PM 15.8 °F 10.2 °F 5.0 °F 62% 30.03 in 10.0 mi WNW 3.5 mph - N/A   Clear
8:53 PM 12.2 °F 4.3 °F 3.2 °F 67% 30.03 in 10.0 mi WNW 4.6 mph - N/A   Clear
9:15 PM 12.2 °F 4.3 °F 3.2 °F 67% 30.04 in 10.0 mi WNW 4.6 mph - N/A   Clear
9:35 PM 12.2 °F 4.3 °F 3.2 °F 67% 30.04 in 10.0 mi WNW 4.6 mph - N/A   Clear
9:53 PM 8.6 °F -1.3 °F 1.4 °F 73% 30.04 in 10.0 mi NW 5.8 mph - N/A   Clear
10:15 PM 6.8 °F -3.5 °F 1.4 °F 79% 30.05 in 10.0 mi NW 5.8 mph - N/A   Clear
10:35 PM 5.0 °F -4.1 °F -0.4 °F 78% 30.05 in 10.0 mi WNW 4.6 mph - N/A   Clear
10:52 PM 6.8 °F -0.1 °F 1.4 °F 79% 30.05 in 10.0 mi WNW 3.5 mph - N/A   Clear
11:14 PM 6.8 °F -0.1 °F -0.4 °F 72% 30.05 in 10.0 mi West 3.5 mph - N/A   Clear
11:35 PM 6.8 °F - 1.4 °F 79% 30.05 in 10.0 mi Calm Calm - N/A   Clear
11:53 PM 3.2 °F - -0.4 °F 85% 30.06 in 10.0 mi Calm Calm - N/A   Clear